Flag for U.S.A. Weather past 2 weeks in Hampton, Virginia, U.S.A.

50 °F


Feels Like: 46 °F
Forecast: 49 / 55 °F
Wind: 10 mph from North

Location: Langley Air Force Base

Current Time: Nov 30, 2015 at 5:52:27 PM

Latest Report: Nov 30, 2015 at 5:03 PM

Visibility: 3 mi

Pressure: 30.19 "Hg

Humidity: 100%

Dew point: 50 °F

Location of HamptonLocation

Historic Weather in Hampton — Graph


Hampton temperature yesterday

Maximum temperature yesterday: 61 °F (at 12:58 PM)
Minimum temperature yesterday: 49 °F (at 11:58 PM)
Average temperature yesterday: 54 °F

Past Weeks' High & Low Weather Summary

High70 °F (Nov 28, 1:58 PM)100% (Nov 20, 12:03 AM)30.77 "Hg (Nov 20, 12:03 AM)
Low29 °F (Nov 24, 4:58 AM)30% (Nov 20, 2:58 PM)29.92 "Hg (Nov 22, 3:58 AM)
Average51 °F80%30.29 "Hg
* Reported Nov 15 3:58 PM — Nov 30 3:59 PM, Hampton, Weather by CustomWeather, © 2015

Note: Actual official high and low records may vary slightly from our data, if they occured in-between our weather recording intervals... More about our weather records


Hampton weather history for previous 24 hours

Time TempWeatherWind HumidityBarometerVisibility
3:59 PM
Mon, Nov 30
50 °FLight rain. Fog.12 mph100%30.20 "Hg2 mi
3:00 PM50 °FLight rain. Fog.12 mph100%30.20 "Hg2 mi
2:03 PM50 °FLight rain. Fog.10 mph94%30.21 "Hg1 mi
1:58 PM50 °FLight rain. Fog.13 mph97%30.23 "Hg1 mi
12:58 PM50 °FLight rain. Fog.12 mph97%30.24 "Hg1 mi
11:58 AM50 °FLight rain. Fog.14 mph97%30.25 "Hg1 mi
10:58 AM49 °FLight rain. Fog.10 mph96%30.28 "Hg1 mi
9:59 AM49 °FFog.15 mph97%30.29 "Hg2 mi
9:03 AM50 °FLight rain. Fog.12 mph94%30.26 "Hg1 mi
8:53 AM48 °FLight rain. Fog.13 mph100%30.25 "Hg1 mi
7:58 AM49 °FLight rain. Fog.12 mph97%30.28 "Hg1 mi
7:03 AM48 °FLight rain. Fog.14 mph100%30.26 "Hg2 mi
6:58 AM49 °FLight rain. Fog.13 mph96%30.28 "Hg2 mi
5:58 AM48 °FFog.12 mph96%30.26 "Hg4 mi
4:58 AM48 °FLight rain. Fog.14 mph96%30.26 "Hg5 mi
3:58 AM48 °FLight rain. Fog.14 mph95%30.26 "Hg6 mi
2:58 AM47 °FLight rain. Fog.15 mph95%30.27 "Hg4 mi
1:58 AM48 °FLight rain. Fog.14 mph96%30.27 "Hg5 mi
12:58 AM48 °FLight rain. Fog.13 mph97%30.25 "Hg2 mi
12:54 AM48 °FLight rain. Fog.12 mph94%30.23 "Hg2 mi
12:03 AM48 °FFog.15 mph100%30.23 "Hg2 mi
11:58 PM
Sun, Nov 29
49 °FFog.15 mph97%30.25 "Hg2 mi
10:58 PM50 °FDrizzle. Fog.17 mph94%30.23 "Hg1 mi
9:59 PM50 °FFog.15 mph94%30.22 "Hg3 mi
9:03 PM50 °FFog.12 mph100%30.21 "Hg5 mi
7:58 PM51 °FLow clouds.10 mph96%30.20 "Hg10 mi
6:58 PM51 °FLow clouds.13 mph97%30.20 "Hg10 mi
5:58 PM52 °FDrizzle. Fog.13 mph97%30.19 "Hg4 mi
5:47 PM52 °FDrizzle. Fog.13 mph100%30.17 "Hg3 mi
5:03 PM52 °FFog.9 mph100%30.16 "Hg2 mi
Weather by CustomWeather, © 2015

See weather overviewHow to use our weather pages